Regional Weather Roundup
Issued by NWS

Home | Current Version | Previous Version | Graphics & Text | Print | Product List | Glossary On
Versions: 1 2 3 4 5 6 7 8 9 10 11 12 13 14 15 16 17 18 19 20 21 22 23 24 25 26 27 28 29 30 31 32 33 34 35 36 37 38 39 40 41 42 43 44 45 46 47 48 49 50
000
ASUS43 KFSD 050710
RWRSD

WEATHER ROUNDUP FOR SOUTH DAKOTA
NATIONAL WEATHER SERVICE SIOUX FALLS SD
200 AM CDT TUE MAY 05 2015

NOTE: "FAIR" INDICATES FEW OR NO CLOUDS BELOW 12,000 FEET WITH NO
SIGNIFICANT WEATHER AND/OR OBSTRUCTIONS TO VISIBILITY.


SDZ001>005-009-010-012>017-050800-
NORTHWEST AND NORTH CENTRAL SOUTH DAKOTA

CITY           SKY/WX    TMP DP  RH WIND       PRES   REMARKS
BUFFALO          N/A     45  29  53 SE14      29.98F
FAITH            N/A     51  27  39 SE15      30.07F
MOBRIDGE       CLOUDY    59  27  29 SE13      30.08F
$$

SDZ012>016-024>037-041>051-057-063-072>074-050800-
SOUTHWEST AND SOUTH CENTRAL SOUTH DAKOTA

CITY           SKY/WX    TMP DP  RH WIND       PRES   REMARKS
RAPID CTY ARPT MOCLDY    46  36  68 S6        30.07F
PIERRE         CLOUDY    55  29  36 E8        30.08F
CUSTER         CLOUDY    44  27  51 S3        30.10F
ELLSWORTH AFB  PTCLDY    47  36  65 S7        30.06F
PHILIP         PTCLDY    44  26  49 CALM      30.08F
PINE RIDGE     PTCLDY    38  31  76 E5        30.08F
SPEARFISH      FAIR      50  32  50 SE12G18   30.03F
WINNER         FAIR      50  34  54 SE6       30.09F
$$

SDZ004>011-016>023-039-040-050800-
NORTHEAST SOUTH DAKOTA

CITY           SKY/WX    TMP DP  RH WIND       PRES   REMARKS
ABERDEEN       PTCLDY    50  32  50 E6        30.15S
WATERTOWN      PTCLDY    54  29  38 E7        30.17S
BROOKINGS      PTCLDY    52  28  40 E7        30.17F
SISSETON         N/A     41  29  62 CALM      30.18S
$$

SDZ017-020-022-023-036>040-048>070-050800-
SOUTHEAST SOUTH DAKOTA

CITY           SKY/WX    TMP DP  RH WIND       PRES   REMARKS
SIOUX FALLS    PTCLDY    47  31  53 NE6       30.14F
HURON          CLEAR     50  31  48 SE8       30.13S
CHAMBERLAIN    PTCLDY    49  38  66 E6        30.10F
MITCHELL       CLEAR     46  37  71 E7        30.12F
YANKTON        CLEAR     52  43  71 N6        30.10F
$$

ABBREVIATIONS USED IN REMARKS
   TC - TEMPERATURE IN CELSIUS
  WCI - WIND CHILL INDEX
   HX - HEAT INDEX
  VSB - VISIBILITY



USA.gov is the U.S. government's official web portal to all federal, state and local government web resources and services.